Simultaneous Nadir Overpasses (SNOs) Predictions

Prediction of SNOs between FY3D and LANDSAT-8 Satellite Orbit:

Table of predicted SNOs for the next 14.0 days since TLE Epoch: 5/7/2022
Index Date (FY3D) Time (FY3D) Lat,Lon (FY3D) SZA (FY3D ) Date (LANDSAT-8) Time (LANDSAT-8) Lat,Lon (LANDSAT-8) SZA (LANDSAT-8 ) Distance(km) Time Diff (sec)
1 05/09/2022 01:29:27 -71.90, -23.51 125.52 05/09/2022 01:30:11 -71.90, -23.42 125.52 3.15 44
2 05/09/2022 02:20:11 71.79, 144.01 54.37 05/09/2022 02:19:38 71.81, 144.07 54.39 3.22 33
3 05/11/2022 16:56:33 71.87, -75.21 53.77 05/11/2022 16:57:14 71.87, -75.22 53.77 0.23 41
4 05/11/2022 17:47:17 -71.81, 92.23 126.31 05/11/2022 17:46:43 -71.81, 92.31 126.30 3.08 34
5 05/14/2022 08:23:38 -71.89,-127.00 126.87 05/14/2022 08:24:18 -71.86,-127.00 126.90 3.43 40
6 05/14/2022 09:14:22 71.79, 40.50 53.03 05/14/2022 09:13:45 71.76, 40.47 53.00 3.33 37
7 05/16/2022 23:50:44 71.89,-178.74 52.52 05/16/2022 23:51:19 71.90,-178.69 52.52 2.25 35
8 05/17/2022 00:41:28 -71.81, -11.29 127.57 05/17/2022 00:40:49 -71.79, -11.24 127.60 2.91 39
9 05/19/2022 15:17:49 -71.86, 129.56 128.10 05/19/2022 15:18:24 -71.86, 129.48 128.10 2.81 35
10 05/19/2022 16:08:34 71.82, -63.05 51.86 05/19/2022 16:07:50 71.81, -62.96 51.85 3.17 44



Historial Predications of SNOs between FY3D and LANDSAT-8
